Location: ?????
(32.7281°N, 34.9563°E)
Time: 03:32:15
(UTC+00:00)

CZ-4B R/B - Pass Details

Date: 07 March 2021
Orbit: 388 x 454 km, 97.6° (Epoch: 18 April)

Event Time Altitude Azimuth Distance (km) Brightness Sun altitude
Rises 02:50:23 0° 156° (SSE) 2,338 5.3 -15.6°
Reaches altitude 10° 02:52:25 10° 150° (SSE) 1,469 4.3 -15.2°
Maximum altitude 02:55:26 46° 76° (ENE) 552 2.3 -14.5°
Drops below altitude 10° 02:58:30 - 1° (N) 1,484 4.1 -13.9°
Sets 03:00:25 0° 356° (N) 2,302 5.0 -13.5°
